Le nostre stazioni meteo in Italia

Pubblicità
Il mio iltempo24.it
Genova/Sestri, Italia (16120): Temperatura & dewpoint: 15.06.2019 00:00:00 - 21.06.2019 00:00:00 (CEST)Genova/Sestri, Italia (16120): velocità del vento: 15.06.2019 00:00:00 - 21.06.2019 00:00:00 (CEST)Genova/Sestri, Italia (16120): direzione del vento: 15.06.2019 00:00:00 - 21.06.2019 00:00:00 (CEST)Genova/Sestri, Italia (16120): reduced air pressure: 15.06.2019 00:00:00 - 21.06.2019 00:00:00 (CEST)Genova/Sestri, Italia (16120): visibility: 15.06.2019 00:00:00 - 21.06.2019 00:00:00 (CEST)
Data & Tempo tt [°C] td [°C] ff [km/h] ff [kn] dd ppp [hPa] vv [km]
21.06.2019 00:00:00 21,0 12,0 9 5 NNE - 10
20.06.2019 23:00:00 22,1 10,4 5 3 NNE 1014,5 10
20.06.2019 22:00:00 23,0 14,0 5 3 NNO - 10
20.06.2019 21:00:00 23,0 15,0 8 4 OSO - 10
20.06.2019 20:00:00 23,2 14,5 4 2 - 1013,1 10
20.06.2019 19:00:00 24,0 15,0 5 3 SSO - 10
20.06.2019 18:00:00 24,0 17,0 5 3 S - 10
20.06.2019 17:00:00 24,6 16,8 8 4 S 1013,8 10
20.06.2019 16:00:00 24,0 17,0 9 5 S - 10
20.06.2019 15:00:00 24,0 17,0 9 5 S - 10
20.06.2019 14:00:00 24,3 17,2 9 5 S 1014,5 10
20.06.2019 13:00:00 25,0 16,0 15 8 SSE - 10
20.06.2019 12:00:00 25,0 17,0 15 8 SSE - 10
20.06.2019 11:00:00 24,1 15,9 15 8 SSE 1014,3 10
20.06.2019 10:00:00 24,0 17,0 9 5 SSE - 10
20.06.2019 09:00:00 23,0 16,0 9 5 SE - 10
20.06.2019 08:00:00 22,9 16,9 5 3 NE 1014,0 10
20.06.2019 07:00:00 20,0 16,0 9 5 NNE - 10
20.06.2019 06:00:00 20,0 16,0 9 5 NNE - 10
20.06.2019 05:00:00 19,8 16,2 11 6 NNE 1013,5 10
20.06.2019 04:00:00 20,0 17,0 8 4 NNE - 10
20.06.2019 03:00:00 21,0 18,0 8 4 NE - 10
20.06.2019 02:00:00 22,1 18,0 8 4 SSE 1014,0 10
20.06.2019 01:00:00 22,0 19,0 13 7 SE - 10
20.06.2019 00:00:00 22,0 19,0 9 5 SSE - 10
19.06.2019 23:00:00 22,2 18,5 9 5 ESE 1013,9 10
19.06.2019 22:00:00 22,0 19,0 11 6 ESE - 10
19.06.2019 21:00:00 22,0 18,0 8 4 SE - 10
19.06.2019 20:00:00 23,1 17,4 8 4 SSE 1013,4 10
19.06.2019 19:00:00 24,0 18,0 5 3 S - 10
19.06.2019 18:00:00 24,0 19,0 9 5 SSE - 10
19.06.2019 17:00:00 24,2 19,0 11 6 SSE 1013,9 10
19.06.2019 16:00:00 25,0 19,0 8 4 SSE - 10
19.06.2019 15:00:00 25,0 19,0 8 4 SSE - 10
19.06.2019 14:00:00 25,1 18,6 11 6 SSE 1014,9 10
19.06.2019 13:00:00 25,0 20,0 11 6 SSE - 10
19.06.2019 12:00:00 24,0 20,0 9 5 SSE - 10
19.06.2019 11:00:00 24,3 19,4 8 4 SSE 1014,6 10
19.06.2019 10:00:00 24,0 19,0 11 6 SSE - 10
19.06.2019 09:00:00 23,0 19,0 5 3 SSE - 10
19.06.2019 08:00:00 23,2 15,0 5 3 NNE 1014,2 10
19.06.2019 07:00:00 21,0 15,0 8 4 NNE - 10
19.06.2019 06:00:00 20,0 15,0 9 5 NNE - 10
19.06.2019 05:00:00 20,7 14,7 8 4 NNE 1014,0 10
19.06.2019 04:00:00 21,0 15,0 9 5 N - 10
19.06.2019 03:00:00 21,0 15,0 8 4 NNE - 10
19.06.2019 02:00:00 21,8 15,9 9 5 NNE 1014,5 10
19.06.2019 01:00:00 23,0 16,0 8 4 NNE - 10
19.06.2019 00:00:00 23,0 17,0 5 3 NNE - 10
18.06.2019 23:00:00 23,3 16,9 4 2 NO 1014,5 10
18.06.2019 22:00:00 23,0 19,0 5 3 SE - 10
18.06.2019 21:00:00 24,0 18,0 4 2 SSO - 10
18.06.2019 20:00:00 24,2 18,7 5 3 S 1014,0 10
18.06.2019 19:00:00 26,0 18,0 4 2 - - 10
18.06.2019 18:00:00 25,0 20,0 9 5 OSO - 10
18.06.2019 17:00:00 24,6 19,6 9 5 SSO 1014,5 10
18.06.2019 16:00:00 25,0 20,0 5 3 S - 10
18.06.2019 15:00:00 25,0 20,0 8 4 S - 10
18.06.2019 14:00:00 25,1 20,5 5 3 S 1015,2 10
18.06.2019 13:00:00 25,0 21,0 8 4 SSE - 10
18.06.2019 12:00:00 24,0 21,0 11 6 SSE - 10
18.06.2019 11:00:00 25,2 19,0 8 4 SSO 1015,4 10
18.06.2019 10:00:00 25,0 19,0 9 5 OSO - 10
18.06.2019 09:00:00 24,0 18,0 5 3 OSO - 10
18.06.2019 08:00:00 23,2 16,1 4 2 - 1015,2 10
18.06.2019 07:00:00 22,0 15,0 2 1 - - 10
18.06.2019 06:00:00 22,0 15,0 13 7 E - 10
18.06.2019 05:00:00 21,1 14,5 16 9 ESE 1014,5 10
18.06.2019 04:00:00 23,0 15,0 5 3 N - 10
18.06.2019 03:00:00 23,0 16,0 5 3 N - 10
18.06.2019 02:00:00 22,2 15,5 2 1 - 1014,4 10
18.06.2019 01:00:00 24,0 16,0 5 3 N - 10
18.06.2019 00:00:00 24,0 17,0 5 3 N - 10
17.06.2019 23:00:00 23,7 16,7 5 3 NO 1014,3 10
17.06.2019 22:00:00 24,0 17,0 5 3 ENE - 10
17.06.2019 21:00:00 23,0 18,0 9 5 ESE - 10
17.06.2019 20:00:00 23,6 18,2 11 6 O 1013,6 10
17.06.2019 19:00:00 24,0 19,0 11 6 OSO - 10
17.06.2019 18:00:00 24,0 19,0 11 6 SO - 10
17.06.2019 17:00:00 24,0 19,4 11 6 OSO 1013,9 10
17.06.2019 16:00:00 24,0 19,0 9 5 SO - 10
17.06.2019 15:00:00 24,0 19,0 13 7 SO - 10
17.06.2019 14:00:00 23,6 18,4 9 5 SO 1015,7 10
17.06.2019 13:00:00 23,0 19,0 9 5 SO - 10
17.06.2019 12:00:00 23,0 18,0 13 7 SO - 10
17.06.2019 11:00:00 22,6 18,3 9 5 SO 1015,9 10
17.06.2019 10:00:00 22,0 18,0 9 5 SO - 10
17.06.2019 09:00:00 22,0 17,0 5 3 SO - 10
17.06.2019 08:00:00 20,9 15,6 5 3 NNE 1015,6 18
17.06.2019 07:00:00 19,0 15,0 8 4 NNE - 10
17.06.2019 06:00:00 18,0 15,0 9 5 NNE - 10
17.06.2019 05:00:00 18,6 14,7 8 4 NE 1015,2 10
17.06.2019 04:00:00 19,0 16,0 9 5 NNE - 10
17.06.2019 03:00:00 19,0 16,0 9 5 NNE - 10
17.06.2019 02:00:00 18,8 15,6 8 4 NNE 1015,5 10
17.06.2019 01:00:00 19,0 16,0 8 4 NNE - 10
17.06.2019 00:00:00 20,0 16,0 9 5 NNE - 10
16.06.2019 23:00:00 20,4 16,5 5 3 NNE 1015,3 10
16.06.2019 22:00:00 21,0 17,0 8 4 O - 10
16.06.2019 21:00:00 21,0 16,0 5 3 SSO - 10
16.06.2019 20:00:00 21,7 16,4 5 3 SO 1014,9 10
16.06.2019 19:00:00 22,0 17,0 8 4 SSO - 10
16.06.2019 18:00:00 23,0 17,0 9 5 SO - 10
16.06.2019 17:00:00 23,0 16,5 9 5 SSO 1015,7 10
16.06.2019 16:00:00 23,0 16,0 9 5 SSO - 10
16.06.2019 15:00:00 23,0 17,0 11 6 SO - 10
16.06.2019 14:00:00 22,9 16,1 11 6 SO 1016,5 10
16.06.2019 13:00:00 22,0 16,0 5 3 SSO - 10
16.06.2019 12:00:00 21,0 17,0 5 3 OSO - 10
16.06.2019 11:00:00 20,9 17,0 5 3 SO 1017,1 10
16.06.2019 10:00:00 21,0 17,0 5 3 SO - 10
16.06.2019 09:00:00 21,0 17,0 5 3 SO - 10
16.06.2019 08:00:00 20,5 16,9 5 3 SO 1016,3 10
16.06.2019 07:00:00 20,0 17,0 5 3 SO - 10
16.06.2019 06:00:00 20,0 17,0 4 2 S - 10
16.06.2019 05:00:00 20,1 16,8 4 2 S 1015,7 10
16.06.2019 04:00:00 20,0 17,0 8 4 SSE - 10
16.06.2019 03:00:00 20,0 17,0 5 3 S - 10
16.06.2019 02:00:00 20,1 17,0 5 3 SE 1016,3 10
16.06.2019 01:00:00 20,0 17,0 4 2 - - 10
16.06.2019 00:00:00 20,0 16,0 4 2 - - 10
15.06.2019 23:00:00 20,3 17,0 8 4 SO 1016,6 10
15.06.2019 22:00:00 20,0 18,0 9 5 SSO - 10
15.06.2019 21:00:00 21,0 18,0 9 5 SSE - 10
15.06.2019 20:00:00 20,9 18,1 8 4 S 1015,4 10
15.06.2019 19:00:00 21,0 18,0 5 3 S - 10
15.06.2019 18:00:00 22,0 18,0 8 4 SO - 10
15.06.2019 17:00:00 22,7 18,7 11 6 SO 1016,3 10
15.06.2019 16:00:00 23,0 19,0 9 5 S - 10
15.06.2019 15:00:00 23,0 19,0 8 4 S - 10
15.06.2019 14:00:00 22,7 18,8 5 3 S 1017,1 10
15.06.2019 13:00:00 22,0 19,0 8 4 S - 7
15.06.2019 12:00:00 22,0 19,0 8 4 SSE - 7
15.06.2019 11:00:00 21,5 19,2 8 4 SSE 1016,7 6
15.06.2019 10:00:00 21,0 20,0 9 5 SSE - 6
15.06.2019 09:00:00 21,0 20,0 5 3 S - 5
15.06.2019 08:00:00 20,6 19,9 4 2 - 1015,4 5
15.06.2019 07:00:00 20,0 20,0 5 3 SE - 4,8
15.06.2019 06:00:00 21,0 20,0 11 6 S - 4,0
15.06.2019 05:00:00 20,7 19,9 11 6 SSE 1014,6 10
15.06.2019 04:00:00 21,0 17,0 8 4 NNE - 10
15.06.2019 03:00:00 21,0 16,0 8 4 NNE - 10
15.06.2019 02:00:00 21,3 16,1 8 4 NNE 1014,1 10
15.06.2019 01:00:00 22,0 17,0 5 3 NNE - 10
15.06.2019 00:00:00 23,0 16,0 16 9 NE - 10

tt = Temperatura
td = dewpoint
ff = velocità del vento
dd = direzione del vento
ppp = reduced air pressure
vv = visibility

Stazioni seguenti

WeatherPro
AMSI
MeteoEarth